Regional Weather Roundup
Issued by NWS Burlington, VT

Home | Current Version | Previous Version | Text Only | Print | Product List | Glossary On
Versions: 1 2 3 4 5 6 7 8 9 10 11 12 13 14 15 16 17 18 19 20 21 22 23 24 25 26 27 28 29 30 31 32 33 34 35 36 37 38 39 40 41 42 43 44 45 46 47 48 49 50
000
ASUS41 KBTV 270230
RWRBTV
VERMONT REGIONAL WEATHER ROUNDUP
NATIONAL WEATHER SERVICE BURLINGTON VT
900 PM EST FRI DEC 26 2014

NOTE: "FAIR" INDICATES FEW OR NO CLOUDS BELOW 12,000 FEET WITH NO
SIGNIFICANT WEATHER AND/OR OBSTRUCTIONS TO VISIBILITY.

* THESE REPORTS ARE NOT UNDER NWS QUALITY CONTROL AND/OR DO NOT
  REPORT WEATHER SUCH AS PRECIPITATION AND FOG.

VTZ001>019-270300-
_____VERMONT_____


CITY           SKY/WX    TMP DP  RH WIND       PRES   REMARKS
BURLINGTON     CLOUDY    40  29  64 S5        30.13S
MONTPELIER     CLOUDY    30  27  88 S7        30.14S
MORRISVILLE    CLOUDY    37  28  70 S7        30.11F
ST. JOHNSBURY*   N/A     31  28  89 MISG      30.11R
LYNDONVILLE*   CLOUDY    36  27  69 CALM      30.11R
MIDDLEBURY*    FAIR      36  29  77 SE3       30.15R
RUTLAND*       FAIR      39  28  65 W7        30.14S
SPRINGFIELD    FAIR      27  25  92 CALM      30.15R
HIGHGATE*      CLOUDY    37  30  77 CALM      30.12R
NEWPORT*       CLOUDY    37  29  74 W9G16     30.09S
BENNINGTON     FAIR      28  24  85 S3        30.16S
SUTTON*          N/A     34 N/A N/A MISG        N/A
GALLUP MILLS*    N/A     34 N/A N/A MISG        N/A
UNION VILLAGE*   N/A     28 N/A N/A MISG        N/A
MT. MANSFIELD*   N/A     27 N/A N/A CALM        N/A

_____LAKE CHAMPLAIN_____


CITY           SKY/WX    TMP DP  RH WIND       PRES   REMARKS
BURTON ISLAND*   N/A     39  32  75 S6          N/A
COLCHESTER RF*   N/A     43  32  65 W5          N/A

$$

NYZ007-026>031-035-052-083-270300-
_____NORTHERN NEW YORK_____


CITY           SKY/WX    TMP DP  RH WIND       PRES   REMARKS
PLATTSBURGH    CLOUDY    40  30  67 CALM      30.12S
SARANAC LAKE   CLOUDY    34  29  82 SW10      30.08S
MASSENA        CLOUDY    39  32  76 SW7       30.13R
POTSDAM*       CLOUDY    39  34  81 W8        30.12S
STARK FALLS*     N/A     36 N/A N/A SW6         N/A
WATERTOWN      FAIR      40  27  59 S6        30.14R
FT DRUM        FAIR      38  24  58 SW9       30.12S
ALBANY         FAIR      31  26  82 CALM      30.19S
GLENS FALLS    FAIR      31  26  82 CALM      30.17S

$$
NHZ002-005-011-270300-
_____NEW HAMPSHIRE_____


CITY           SKY/WX    TMP DP  RH WIND       PRES   REMARKS
LEBANON        FAIR      29  25  85 CALM      30.14R
KEENE          FAIR      28  27  93 CALM      30.16R
MT WASHINGTON  FOG       16  16 100 NW54        N/A  VSB 1/16WCI  -9
PLYMOUTH       FAIR      28  28 100 CALM      30.12R
WHITEFIELD     CLOUDY    29  26  89 CALM      30.10R

$$

_____REGIONAL QUEBEC LOCATIONS_____


CITY           SKY/WX    TMP DP  RH WIND       PRES   REMARKS
MONTREAL       CLOUDY    39  32  75 W12G18    30.10R
QUEBEC CITY    LGT RAIN  34  32  93 SW10      29.99
SHERBROOKE     CLOUDY    37  30  75 SW9G17    30.05F

_____REGIONAL ONTARIO LOCATIONS_____


CITY           SKY/WX    TMP DP  RH WIND       PRES   REMARKS
OTTAWA         CLOUDY    37  34  87 SW6       30.10F

______KEY______
VSB  - VISIBILITY IN MILES
WCI  - WIND CHILL INDEX
HX   - HEAT INDEX
$$



USA.gov is the U.S. government's official web portal to all federal, state and local government web resources and services.